TimeHST,TemperatureF,Dew PointF,Humidity,Sea Level PressureIn,VisibilityMPH,Wind Direction,Wind SpeedMPH,Gust SpeedMPH,PrecipitationIn,Events,Conditions,WindDirDegrees,DateUTC
6:55 AM,62.6,60.8,94,30.16,10.0,Calm,Calm,-,N/A,,Scattered Clouds,0,2013-01-25 16:55:00
7:50 AM,64.4,62.6,94,30.10,10.0,North,5.8,-,N/A,,Scattered Clouds,360,2013-01-25 17:50:00
8:55 AM,69.8,64.4,83,30.12,10.0,Variable,4.6,-,N/A,,Scattered Clouds,0,2013-01-25 18:55:00
9:50 AM,73.4,62.6,69,30.13,10.0,SSE,6.9,-,N/A,,Scattered Clouds,150,2013-01-25 19:50:00
10:53 AM,75.2,62.6,65,30.12,10.0,South,6.9,-,N/A,,Scattered Clouds,190,2013-01-25 20:53:00
11:50 AM,73.4,64.4,73,30.10,10.0,West,6.9,-,N/A,,Mostly Cloudy,260,2013-01-25 21:50:00
12:50 PM,75.2,64.4,69,30.09,10.0,WNW,10.4,-,N/A,,Mostly Cloudy,300,2013-01-25 22:50:00
1:50 PM,80.6,64.4,58,30.06,10.0,WNW,10.4,-,N/A,,Scattered Clouds,300,2013-01-25 23:50:00
2:50 PM,80.6,64.4,58,30.05,10.0,WNW,8.1,-,N/A,,Scattered Clouds,300,2013-01-26 00:50:00
3:50 PM,80.6,62.6,54,30.04,10.0,NNW,11.5,-,N/A,,Partly Cloudy,340,2013-01-26 01:50:00
3:56 PM,79.9,61.9,54,29.99,10.0,NNW,12.7,-,N/A,,Clear,340,2013-01-26 01:56:00
4:45 PM,80.6,62.6,54,30.04,10.0,NNW,12.7,-,N/A,,Clear,340,2013-01-26 02:45:00
4:56 PM,74.8,61.9,64,30.01,10.0,North,9.2,-,N/A,,Clear,360,2013-01-26 02:56:00
5:55 PM,71.6,60.8,69,30.07,10.0,NNE,12.7,-,N/A,,Clear,20,2013-01-26 03:55:00
5:56 PM,72.0,61.0,68,30.03,10.0,NNE,12.7,-,N/A,,Clear,20,2013-01-26 03:56:00
6:46 PM,71.6,62.6,73,30.08,10.0,NE,5.8,-,N/A,,Mostly Cloudy,50,2013-01-26 04:46:00
6:55 PM,71.6,62.6,73,30.09,10.0,NE,5.8,-,N/A,,Mostly Cloudy,40,2013-01-26 04:55:00
6:56 PM,70.9,61.9,73,30.05,10.0,NE,5.8,-,N/A,,Mostly Cloudy,40,2013-01-26 04:56:00
7:56 PM,69.8,60.8,73,30.10,10.0,NE,5.8,-,N/A,,Overcast,50,2013-01-26 05:56:00
8:56 PM,68.0,63.0,84,30.05,10.0,NE,10.4,-,N/A,,Scattered Clouds,40,2013-01-26 06:56:00
9:38 PM,66.2,62.6,88,30.10,10.0,ENE,4.6,-,N/A,,Mostly Cloudy,70,2013-01-26 07:38:00
9:56 PM,66.9,61.9,84,30.04,10.0,ENE,4.6,-,N/A,,Mostly Cloudy,70,2013-01-26 07:56:00
10:04 PM,66.2,62.6,88,30.10,10.0,East,4.6,-,N/A,,Mostly Cloudy,100,2013-01-26 08:04:00
10:25 PM,66.2,62.6,88,30.10,10.0,SE,8.1,-,N/A,,Scattered Clouds,130,2013-01-26 08:25:00
10:56 PM,68.0,63.9,87,30.05,10.0,SE,6.9,-,N/A,,Partly Cloudy,140,2013-01-26 08:56:00
11:56 PM,64.9,61.9,90,30.04,10.0,ENE,4.6,-,N/A,,Clear,60,2013-01-26 09:56:00